"Pseudo-MPEC" for ZTF01nf

Created 2018 Nov 20 3:18:11 UT using Find_Orb

Click here for an explanation of pseudo-MPECs

 
 Astrometry: 
     ZTF01nf  C2018 11 15.32542004 32 51.13 +16 11 00.8                UNEOCPI41
     ZTF01nf  C2018 11 15.32576704 32 56.02 +16 11 57.3                UNEOCPI41
     ZTF01nf  C2018 11 15.34952404 38 45.86 +17 17 44.6          17.77RUNEOCPI41
     ZTF01nf  C2018 11 15.34987104 38 51.12 +17 18 42.1          17.77RUNEOCPI41
     ZTF01nf  C2018 11 15.45812205 15 07.33 +22 48 36.4                UNEOCPI41
     ZTF01nf  C2018 11 15.45846905 15 16.87 +22 49 47.3                UNEOCPI41

Station data:
(I41) Palomar Mountain--ZTF  (N33.357340 W116.859780)  US/California. 1.2-m
   f/2.44 Oschin Schmidt + CCD.

Orbital elements:  ZTF01nf
   Perigee 2018 Nov 14.679964 +/- 0.00239 TT = 16:19:08 (JD 2458437.179964)
Epoch 2018 Nov 15.0 TT = JDT 2458437.5                        AutoNEOCP
M 120.40744008 +/- 0.58             (J2000 equator)
n 376.23076950 +/- 1                Peri.  200.98056 +/- 0.06
a 41017.3217 +/- 72.9               Node    37.37647 +/- 0.0018
e   0.7805027 +/- 0.000384          Incl.   32.97290 +/- 0.0054
P1377.85m/0.957d           H 34.4   G  0.15   U 12.7  
q 9003.18775 +/- 28.5    Q 73031.4556 +/- 121
From 6 observations 2018 Nov. 15 (3.2 hr); mean residual 0".42
Residuals in arcseconds: 
181115 I41  .31+  .25+    181115 I41  .33+  .42+    181115 I41  .76+  .12+    
181115 I41  .32-  .27-    181115 I41  .32-  .40-    181115 I41  .77-  .12-    

Ephemerides (geocentric):
Date (UTC) HH   RA              Dec         delta   r     elong  mag " sig PA
---- -- -- --  -------------   -----------  ------ ------ -----  --- ---- ---
2018 11 20 03  04 33 51.233   +18 43 50.35   65544 .98854 167.4 18.3 2978  62
2018 11 20 04  04 49 15.843   +20 34 59.69   61547 .98850 163.9 18.3 3391  64
2018 11 20 05  05 07 34.979   +22 37 11.76   56537 .98845 159.6 18.2 4044  65
2018 11 20 06  05 30 40.441   +24 55 25.29   50361 .98839 154.2 18.1 5146  68
2018 11 20 07  06 02 24.822   +27 36 19.69   42784 .98832 146.9 18.0 7250  71
2018 11 20 08  06 52 45.479   +30 43 29.07   33418 .98823 135.7 17.8 205'  77
2018 11 20 09  08 37 59.416   +32 59 01.47   21629 .98812 113.6 17.5 531'  91
2018 11 20 10  14 37 39.383   -01 34 54.18    9195 .98800  24.0 23??  44d 123
2018 11 20 11  23 01 50.716   -26 56 05.88   19121 .98806  97.7 17.7 528'  70
2018 11 20 12  00 46 38.484   -15 29 43.55   31434 .98816 124.3 18.0 215'  60
2018 11 20 13  01 30 57.109   -09 02 43.44   41195 .98823 136.7 18.2 7858  58
2018 11 20 14  01 58 31.986   -04 42 44.45   49070 .98829 144.6 18.4 5713  57
2018 11 20 15  02 18 48.474   -01 26 32.06   55485 .98834 150.5 18.5 4573  57
2018 11 20 16  02 35 09.937   +01 12 48.47   60699 .98837 155.1 18.5 3891  57
2018 11 20 17  02 49 11.179   +03 28 54.20   64877 .98840 159.1 18.5 3456  57
2018 11 20 18  03 01 44.304   +05 29 33.82   68126 .98842 162.5 18.5 3172  57
2018 11 20 19  03 13 21.719   +07 19 43.58   70523 .98844 165.6 18.5 2988  57
2018 11 20 20  03 24 25.890   +09 02 46.86   72114 .98844 168.3 18.5 2880  58
2018 11 20 21  03 35 14.151   +10 41 14.77   72932 .98844 170.7 18.4 2833  58
2018 11 20 22  03 46 01.482   +12 17 09.02   72991 .98844 172.5 18.3 2843  59
2018 11 20 23  03 57 02.458   +13 52 16.59   72292 .98842 173.3 18.3 2911  60
2018 11 21 00  04 08 33.028   +15 28 20.72   70822 .98841 172.8 18.2 3044  60
2018 11 21 01  04 20 52.669   +17 07 10.93   68553 .98838 171.0 18.2 3261  61
2018 11 21 02  04 34 27.630   +18 50 54.31   65439 .98835 168.2 18.3 3592  62
2018 11 21 03  04 49 56.705   +20 42 10.78   61412 .98831 164.7 18.2 4100  64
2018 11 21 04  05 08 22.899   +22 44 35.15   56368 .98826 160.4 18.2 4902  65
2018 11 21 05  05 31 40.338   +25 03 07.62   50152 .98820 154.9 18.1 6263  68
2018 11 21 06  06 03 47.691   +27 44 26.21   42526 .98812 147.5 18.0 8884  71
2018 11 21 07  06 55 02.919   +30 51 30.02   33094 .98804 136.2 17.7 254'  78
2018 11 21 08  08 43 29.534   +32 57 27.27   21215 .98792 113.4 17.4 686'  92
2018 11 21 09  14 58 36.203   -05 00 19.29    9070 .98780  18.8 24??  51d 123
2018 11 21 10  23 08 06.522   -26 24 22.82   19552 .98787  98.2 17.8 588'  69
2018 11 21 11  00 48 48.328   -15 09 58.97   31779 .98796 124.0 18.0 246'  60
2018 11 21 12  01 32 14.015   -08 48 30.10   41473 .98803 136.2 18.2 9091  58
2018 11 21 13  01 59 28.127   -04 31 08.74   49297 .98809 144.1 18.4 6635  57
2018 11 21 14  02 19 34.056   -01 16 25.06   55672 .98814 149.9 18.5 5320  57
2018 11 21 15  02 35 49.381   +01 21 59.70   60851 .98818 154.5 18.5 4531  57
2018 11 21 16  02 49 46.796   +03 37 27.73   64998 .98820 158.5 18.6 4026  57
2018 11 21 17  03 02 17.472   +05 37 40.60   68220 .98823 162.0 18.6 3696  57
2018 11 21 18  03 13 53.357   +07 27 30.79   70591 .98824 165.1 18.5 3483  57
2018 11 21 19  03 24 56.674   +09 10 19.58   72158 .98825 167.9 18.5 3358  58
2018 11 21 20  03 35 44.634   +10 48 36.80   72952 .98825 170.4 18.4 3306  58
2018 11 21 21  03 46 32.166   +12 24 23.42   72987 .98824 172.4 18.3 3320  59
2018 11 21 22  03 57 33.855   +13 59 26.02   72264 .98823 173.6 18.2 3401  60
2018 11 21 23  04 09 05.724   +15 35 27.69   70770 .98821 173.4 18.2 3561  60
2018 11 22 00  04 21 27.398   +17 14 18.04   68476 .98819 171.7 18.2 3819  61
2018 11 22 01  04 35 05.412   +18 58 04.52   65336 .98815 169.0 18.2 4214  62
2018 11 22 02  04 50 39.093   +20 49 27.72   61280 .98811 165.5 18.2 4820  64